Weather History for Lakeview AWS, OR

Change the Weather History Date:

Wednesday, April 3, 2013

  Actual Average Record
Temperature  
Mean Temperature 45 °F -  
Max Temperature 62 °F 53 °F 73 °F (1990)
Min Temperature 28 °F 28 °F 18 °F (1932)
Degree Days  
Heating Degree Days 20    
Moisture  
Dew Point 36 °F    
Average Humidity 73    
Maximum Humidity 100    
Minimum Humidity 37    
Precipitation  
Precipitation 0.00 in - - ()
Sea Level Pressure  
Sea Level Pressure 30.14 in    
Wind  
Wind Speed 4 mph (NNW)    
Max Wind Speed 9 mph    
Max Gust Speed -    
Visibility 10 miles    
Events      
Averages and records for this station are not official NWS values.
T = Trace of Precipitation, MM = Missing Value Source: NWS Daily Summary

Daily Weather History Graph

Daily Weather History Graph

Search for Another Location

Airport:

Trip Planner

Search our weather history database for the weather conditions in past years. The results will help you decide how hot, cold, wet, or windy it might be!

Date:

Astronomy

Apr. 03, 2013 Rise Set
Actual Time 6:40 AM PDT 7:29 PM PDT
Civil Twilight 6:11 AM PDT 7:58 PM PDT
Nautical Twilight 5:38 AM PDT 8:32 PM PDT
Astronomical Twilight 5:03 AM PDT 9:07 PM PDT
Moon 2:32 AM PDT (4/3) 12:41 PM PDT (4/3)
Length of Visible Light 13h 46m
Length of Day
12h 49m
Last Quarter, 43% of the Moon is Illuminated
Apr 3
Last Quarter
Apr 10
New
Apr 18
First Quarter
Apr 25
Full
May 2
Last Quarter

Hourly Weather History & Observations

Time (PDT) Temp. Windchill Dew Point Humidity Pressure Visibility Wind Dir Wind Speed Gust Speed Precip Events Conditions
12:15 AM 37.4 °F - 35.6 °F 93% 30.18 in 10.0 mi Calm Calm - N/A   Unknown
12:35 AM 35.6 °F 31.7 °F 33.8 °F 93% 30.19 in 10.0 mi NNW 4.6 mph - N/A   Unknown
12:55 AM 33.8 °F 29.6 °F 32.0 °F 93% 30.19 in 10.0 mi NNW 4.6 mph - N/A   Unknown
1:15 AM 32.0 °F 25.6 °F 30.2 °F 93% 30.19 in 10.0 mi NNW 6.9 mph - N/A   Unknown
1:35 AM 32.0 °F 25.6 °F 30.2 °F 93% 30.19 in 10.0 mi NNW 6.9 mph - N/A   Unknown
1:55 AM 32.0 °F 28.7 °F 30.2 °F 93% 30.19 in 10.0 mi NNW 3.5 mph - N/A   Unknown
2:15 AM 32.0 °F 25.6 °F 30.2 °F 93% 30.19 in 10.0 mi NW 6.9 mph - N/A   Unknown
2:35 AM 30.2 °F 22.6 °F 30.2 °F 100% 30.19 in 10.0 mi NNW 8.1 mph - N/A   Unknown
2:55 AM 30.2 °F 23.4 °F 30.2 °F 100% 30.18 in 10.0 mi North 6.9 mph - N/A   Unknown
3:15 AM 30.2 °F 23.4 °F 30.2 °F 100% 30.18 in 10.0 mi NW 6.9 mph - N/A   Unknown
3:35 AM 30.2 °F 24.3 °F 28.4 °F 93% 30.18 in 10.0 mi NW 5.8 mph - N/A   Unknown
3:55 AM 30.2 °F 24.3 °F 28.4 °F 93% 30.19 in 10.0 mi NW 5.8 mph - N/A   Unknown
4:15 AM 30.2 °F 26.7 °F 28.4 °F 93% 30.19 in 10.0 mi NNW 3.5 mph - N/A   Unknown
4:35 AM 30.2 °F 24.3 °F 28.4 °F 93% 30.19 in 10.0 mi NNW 5.8 mph - N/A   Unknown
4:55 AM 28.4 °F 22.2 °F 28.4 °F 100% 30.19 in 10.0 mi NW 5.8 mph - N/A   Unknown
5:15 AM 28.4 °F 21.2 °F 28.4 °F 100% 30.19 in 10.0 mi WNW 6.9 mph - N/A   Unknown
5:35 AM 28.4 °F 22.2 °F 28.4 °F 100% 30.18 in 10.0 mi North 5.8 mph - N/A   Unknown
5:55 AM 28.4 °F 22.2 °F 26.6 °F 93% 30.17 in 10.0 mi North 5.8 mph - N/A   Unknown
6:15 AM 28.4 °F 22.2 °F 26.6 °F 93% 30.17 in 10.0 mi NNW 5.8 mph - N/A   Unknown
6:35 AM 28.4 °F 22.2 °F 26.6 °F 93% 30.18 in 10.0 mi WNW 5.8 mph - N/A   Unknown
6:55 AM 28.4 °F 23.3 °F 28.4 °F 100% 30.19 in 10.0 mi NNW 4.6 mph - N/A   Unknown
7:15 AM 30.2 °F 26.7 °F 28.4 °F 93% 30.19 in 10.0 mi NNE 3.5 mph - N/A   Unknown
7:35 AM 32.0 °F 28.7 °F 30.2 °F 93% 30.19 in 10.0 mi NNW 3.5 mph - N/A   Unknown
7:55 AM 33.8 °F - 33.8 °F 100% 30.19 in 10.0 mi Calm Calm - N/A   Unknown
8:15 AM 37.4 °F 34.9 °F 35.6 °F 93% 30.20 in 10.0 mi WNW 3.5 mph - N/A   Unknown
8:35 AM 39.2 °F 35.9 °F 35.6 °F 87% 30.19 in 10.0 mi NW 4.6 mph - N/A   Unknown
8:55 AM 42.8 °F 41.1 °F 37.4 °F 81% 30.19 in 9.0 mi NW 3.5 mph - N/A   Unknown
9:15 AM 44.6 °F - 39.2 °F 81% 30.19 in 10.0 mi Calm Calm - N/A   Unknown
9:35 AM 48.2 °F - 39.2 °F 71% 30.20 in 10.0 mi SW 3.5 mph - N/A   Unknown
9:55 AM 46.4 °F - 39.2 °F 76% 30.19 in 10.0 mi Calm Calm - N/A   Unknown
10:15 AM 46.4 °F 44.3 °F 39.2 °F 76% 30.20 in 10.0 mi SE 4.6 mph - N/A   Unknown
10:35 AM 48.2 °F - 39.2 °F 71% 30.20 in 10.0 mi South 3.5 mph - N/A   Unknown
10:55 AM 50.0 °F - 41.0 °F 71% 30.19 in 10.0 mi SE 3.5 mph - N/A   Unknown
11:15 AM 50.0 °F - 41.0 °F 71% 30.19 in 10.0 mi SE 5.8 mph - N/A   Unknown
11:35 AM 51.8 °F - 41.0 °F 67% 30.18 in 10.0 mi SE 3.5 mph - N/A   Unknown
11:55 AM 53.6 °F - 39.2 °F 58% 30.18 in 10.0 mi South 4.6 mph - N/A   Unknown
12:15 PM 57.2 °F - 39.2 °F 51% 30.17 in 10.0 mi South 5.8 mph - N/A   Unknown
12:35 PM 57.2 °F - 37.4 °F 48% 30.17 in 10.0 mi South 5.8 mph - N/A   Unknown
12:55 PM 57.2 °F - 33.8 °F 41% 30.17 in 10.0 mi SSE 8.1 mph - N/A   Unknown
1:15 PM 57.2 °F - 33.8 °F 41% 30.16 in 10.0 mi SSE 6.9 mph - N/A   Unknown
1:35 PM 59.0 °F - 35.6 °F 42% 30.15 in 10.0 mi SSE 9.2 mph - N/A   Unknown
1:55 PM 59.0 °F - 37.4 °F 45% 30.15 in 10.0 mi SSE 9.2 mph - N/A   Unknown
2:15 PM 59.0 °F - 37.4 °F 45% 30.15 in 10.0 mi SE 9.2 mph - N/A   Unknown
2:35 PM 59.0 °F - 39.2 °F 48% 30.14 in 10.0 mi SE 8.1 mph - N/A   Unknown
2:55 PM 59.0 °F - 37.4 °F 45% 30.13 in 10.0 mi SE 5.8 mph - N/A   Unknown
3:15 PM 60.8 °F - 39.2 °F 45% 30.12 in 10.0 mi SE 5.8 mph - N/A   Unknown
3:35 PM 62.6 °F - 39.2 °F 42% 30.11 in 10.0 mi SE 5.8 mph - N/A   Unknown
3:55 PM 62.6 °F - 37.4 °F 39% 30.10 in 10.0 mi SSE 9.2 mph - N/A   Unknown
4:15 PM 62.6 °F - 37.4 °F 39% 30.09 in 10.0 mi South 6.9 mph - N/A   Unknown
4:35 PM 62.6 °F - 37.4 °F 39% 30.09 in 10.0 mi SE 5.8 mph - N/A   Unknown
4:55 PM 62.6 °F - 35.6 °F 37% 30.08 in 10.0 mi SE 6.9 mph - N/A   Unknown
5:15 PM 62.6 °F - 35.6 °F 37% 30.08 in 10.0 mi SE 4.6 mph - N/A   Unknown
5:35 PM 62.6 °F - 35.6 °F 37% 30.07 in 10.0 mi South 6.9 mph - N/A   Unknown
5:55 PM 60.8 °F - 35.6 °F 39% 30.07 in 10.0 mi SSE 4.6 mph - N/A   Unknown
6:15 PM 60.8 °F - 37.4 °F 42% 30.06 in 10.0 mi SSE 4.6 mph - N/A   Unknown
6:35 PM 59.0 °F - 39.2 °F 48% 30.06 in 10.0 mi Calm Calm - N/A   Unknown
6:55 PM 59.0 °F - 39.2 °F 48% 30.06 in 10.0 mi Calm Calm - N/A   Unknown
7:15 PM 55.4 °F - 41.0 °F 58% 30.06 in 10.0 mi NNE 3.5 mph - N/A   Unknown
7:35 PM 53.6 °F - 42.8 °F 67% 30.05 in 10.0 mi ENE 3.5 mph - N/A   Unknown
7:55 PM 51.8 °F - 41.0 °F 67% 30.05 in 10.0 mi East 3.5 mph - N/A   Unknown
8:15 PM 50.0 °F - 41.0 °F 71% 30.05 in 10.0 mi Calm Calm - N/A   Unknown
8:35 PM 50.0 °F - 41.0 °F 71% 30.05 in 10.0 mi NNW 5.8 mph - N/A   Unknown
8:55 PM 48.2 °F - 39.2 °F 71% 30.06 in 10.0 mi NNW 4.6 mph - N/A   Unknown
9:15 PM 48.2 °F - 42.8 °F 82% 30.06 in 10.0 mi NW 4.6 mph - N/A   Unknown
9:35 PM 46.4 °F 44.3 °F 41.0 °F 81% 30.06 in 10.0 mi NNW 4.6 mph - N/A   Unknown
9:55 PM 46.4 °F 44.3 °F 41.0 °F 81% 30.06 in 10.0 mi NNW 4.6 mph - N/A   Unknown
10:15 PM 46.4 °F - 41.0 °F 81% 30.06 in 10.0 mi Calm Calm - N/A   Unknown
10:35 PM 46.4 °F - 41.0 °F 81% 30.05 in 10.0 mi Calm Calm - N/A   Unknown
10:55 PM 44.6 °F - 41.0 °F 87% 30.05 in 10.0 mi Calm Calm - N/A   Unknown
11:15 PM 44.6 °F 43.1 °F 41.0 °F 87% 30.04 in 10.0 mi West 3.5 mph - N/A   Unknown
11:35 PM 44.6 °F - 39.2 °F 81% 30.04 in 10.0 mi Calm Calm - N/A   Unknown
11:55 PM 42.8 °F 39.3 °F 39.2 °F 87% 30.04 in 10.0 mi NNE 5.8 mph - N/A   Unknown